SALSAT
1 46495U 20068K   25250.21549836  .00009875  00000-0  41026-3 0  9991
2 46495  97.8687 232.5006 0010291 200.3994 159.6832 15.23990361272175
TUBIN
1 48900U 21059X   25250.27791825  .00071536  00000-0  60816-3 0  9999
2 48900  97.6766  67.3606 0002737 251.6313 108.4651 15.69390354234067
LEDSAT
1 49069U 21073D   25250.19283498  .00210797  00000-0  12026-2 0  9998
2 49069  97.3793 336.3587 0003867 127.6337 232.5281 15.78315752225473
CUTE
1 49263U 21088D   25250.16144457  .00021921  00000-0  37663-3 0  9992
2 49263  97.4445 329.2378 0005112 260.3439  99.7236 15.51146701218298
TeikyoSat 4
1 49396U 21102B   25250.14191490  .00002266  00000-0  15104-3 0  9990
2 49396  97.4037 285.3262 0012462 178.4059 181.7212 15.07998848210048
Z-Sat
1 49399U 21102E   25250.19639115  .00006126  00000-0  32892-3 0  9991
2 49399  97.3733 289.0451 0018809 148.9437 211.2912 15.15124870210543
KOSEN 1
1 49402U 21102H   25250.02271440  .00012127  00000-0  54030-3 0  9997
2 49402  97.3632 292.9881 0017008 123.3609 236.9258 15.21447607210881
HO-113
1 50466U 21131B   25250.27312431  .00000827  00000-0  27148-3 0  9998
2 50466  98.5085 339.1842 0003526 213.2596 146.8371 14.40913672194362
SNUGLITE 2
1 52899U 22065F   25250.13529946  .00001835  00000-0  36384-3 0  9995
2 52899  98.1812  31.3073 0007465 183.6250 176.4899 14.63422173169584
UmKA 1 (RS40S)
1 57172U 23091G   25250.25417275  .00007736  00000-0  40129-3 0  9996
2 57172  97.5500 305.1828 0014559  30.3850 329.8224 15.16337468121064
CubeBel-2 (EU11S)
1 57175U 23091K   25250.23102688  .00013486  00000-0  61069-3 0  9991
2 57175  97.5501 306.8874 0012234  37.0392 323.1685 15.20936995121175
ENSO
1 58470U 23185J   25250.32345545  .00125002  00000-0  10984-2 0  9992
2 58470  97.3644 328.9637 0004677 126.4745 233.6948 15.68398780 99031
EIRSAT-1
1 58472U 23185L   25247.61785164  .16327471  25584-5  21378-3 0  9997
2 58472  97.3302 330.8194 0010438 267.2211  92.7899 16.48977480 98923
SONATE-2
1 59112U 24043Q   25250.26924325  .00025709  00000-0  67063-3 0  9996
2 59112  97.5242  23.4771 0010716 150.7438 209.4409 15.38756474 84118
MO-122
1 60209U 24125G   25250.06269808  .00034885  00000-0  88948-3 0  9992
2 60209  97.2688 100.8171 0017749 170.0301 190.1300 15.39285997 65707
GRBBeta
1 60237U 24128C   25250.02003601  .00007924  00000-0  57465-3 0  9993
2 60237  61.9913 127.5484 0056599  76.8823 283.8576 15.03396549 63641
Curium One
1 60242U 24128H   25250.02797956  .00014377  00000-0  94766-3 0  9997
2 60242  61.9808 124.3894 0056479  73.6191 287.1101 15.06438916 63706
ROBUSTA-3A
1 60243U 24128J   25250.19270190  .00011163  00000-0  75083-3 0  9993
2 60243  61.9879 124.9535 0055792  71.2084 289.5050 15.05910216 63712
CatSat
1 60246U 24125J   25250.01807370  .00034991  00000-0  10689-2 0  9994
2 60246  97.2497  98.9281 0041469 133.8222 226.6462 15.32944614 63679
HYPERVIEW-1G (RS66S)
1 61772U 24199AP  25250.25185343  .00032491  00000-0  83312-3 0  9992
2 61772  97.3386 119.0711 0011050 222.6884 137.3504 15.39229642 90735
AO-123
1 61781U 24199AY  25250.24571100  .00010281  00000-0  36063-3 0  9995
2 61781  97.3408 116.8585 0013825 235.8271 124.1659 15.29536106 90585
ZIMSAT 2
1 61783U 24199BA  25250.24534477  .00060978  00000-0  11649-2 0  9993
2 61783  97.3343 120.5374 0010171 211.9838 148.0797 15.47855223 93987
HADES-R (SO-124)
1 62690U 25009CK  25249.96094161  .00084732  00000-0  23945-2 0  9996
2 62690  97.4037 330.7668 0003140 148.6851 211.4581 15.36014281 35831
HYDRA-T
1 62692U 25009CM  25250.18743076  .00059677  00000-0  16675-2 0  9992
2 62692  97.4036 331.0743 0002875 145.4996 214.6435 15.36483590 35879
JINJUSat 1B
1 63210U 25052A   25250.23534927  .00016786  00000-0  72392-3 0  9999
2 63210  97.4287 143.2716 0004941  37.6497 322.5084 15.22607831 26882
NUSHSAT 1
1 63211U 25052B   25250.21115635  .00019078  00000-0  81106-3 0  9999
2 63211  97.4276 143.2803 0005138  41.9391 318.2239 15.23067214 26888
TEVEL2-4
1 63213U 25052D   25250.17893848  .00018934  00000-0  81456-3 0  9993
2 63213  97.4186 142.9811 0004888  58.2360 301.9352 15.22665186 26878
TEVEL2-5
1 63214U 25052E   25250.24680328  .00018640  00000-0  80279-3 0  9995
2 63214  97.4194 143.0441 0004838  57.6314 302.5390 15.22632652 26888
TEVEL2-6
1 63215U 25052F   25250.25129457  .00018700  00000-0  80630-3 0  9996
2 63215  97.4192 143.0406 0004946  57.9585 302.2131 15.22591734 26886
TEVEL2-1
1 63217U 25052H   25249.94730295  .00022141  00000-0  96094-3 0  9995
2 63217  97.4168 142.6266 0005431  66.3935 293.7871 15.22331440 26839
TEVEL2-3
1 63218U 25052J   25250.21033042  .00017621  00000-0  76551-3 0  9997
2 63218  97.4170 142.8878 0005477  66.5017 293.6795 15.22345027 26871
TEVEL2-2
1 63219U 25052K   25250.21091945  .00017652  00000-0  76714-3 0  9999
2 63219  97.4167 142.8863 0005458  66.3826 293.7983 15.22333531 26874
TEVEL2-9
1 63237U 25052AD  25249.95467394  .00021447  00000-0  96607-3 0  9993
2 63237  97.4234 142.4607 0009973  70.0959 290.1350 15.21034237 26819
TEVEL2-7
1 63238U 25052AE  25250.22434703  .00016626  00000-0  75188-3 0  9998
2 63238  97.4235 142.7156 0010012  69.2352 290.9956 15.20952765 26854
TEVEL2-8
1 63239U 25052AF  25250.22819973  .00016841  00000-0  76219-3 0  9990
2 63239  97.4234 142.7083 0010026  69.5378 290.6933 15.20923095 26855
HYDRA-W
1 63490U 25052BL  25250.22381229  .00040783  00000-0  14791-2 0  9995
2 63490  97.4179 143.6569 0013126  66.0699 294.1913 15.28143890 26923
HADES-ICM (SO-125)
1 63492U 25052BN  25250.20606667  .00041897  00000-0  15547-2 0  9998
2 63492  97.4178 143.5414 0013461  68.4819 291.7853 15.27379364 26915
